When you browse on this site, cookies collect data to enhance your experience and personalize the content and advertising you see.
Visit our Privacy Policy to learn more. By continuing to use the site, you agree to this use of cookies and data.

Hourly Weather Macapa

Today, 28 September, Monday

Time Temperature Precipitation Wind Pressure Humidity
00:00 +27°C° 0.1 mm 3 mps 758 mmHg 87%
01:00 +27°C° 0.1 mm 3 mps 757 mmHg 88%
02:00 +27°C° 0.1 mm 3 mps 757 mmHg 89%
03:00 +26°C° 0 mm 3 mps 756 mmHg 93%
04:00 +26°C° 0.4 mm 3 mps 756 mmHg 93%
05:00 +26°C° 0.4 mm 2 mps 756 mmHg 93%
06:00 +26°C° 0.4 mm 2 mps 756 mmHg 93%
07:00 +27°C° 0 mm 2 mps 757 mmHg 86%
08:00 +29°C° 0 mm 2 mps 757 mmHg 79%
09:00 +31°C° 0 mm 2 mps 758 mmHg 72%
10:00 +33°C° 0 mm 3 mps 758 mmHg 66%
11:00 +34°C° 0 mm 3 mps 758 mmHg 60%
12:00 +36°C° 0 mm 3 mps 757 mmHg 54%
13:00 +36°C° 0.1 mm 4 mps 757 mmHg 53%
14:00 +36°C° 0.1 mm 4 mps 756 mmHg 52%
15:00 +36°C° 0.1 mm 4 mps 755 mmHg 51%
16:00 +35°C° 0 mm 4 mps 755 mmHg 56%
17:00 +34°C° 0 mm 4 mps 755 mmHg 61%
18:00 +32°C° 0 mm 4 mps 756 mmHg 65%
19:00 +30°C° 0 mm 4 mps 756 mmHg 70%
20:00 +29°C° 0 mm 4 mps 757 mmHg 74%
21:00 +28°C° 0 mm 5 mps 758 mmHg 78%
22:00 +28°C° 0 mm 4 mps 758 mmHg 80%
23:00 +27°C° 0 mm 4 mps 758 mmHg 81%

Tomorrow, 29 September, Tuesday

Time Temperature Precipitation Wind Pressure Humidity
00:00 +27°C° 0 mm 4 mps 758 mmHg 83%
01:00 +27°C° 0 mm 4 mps 757 mmHg 84%
02:00 +26°C° 0 mm 3 mps 757 mmHg 86%
03:00 +26°C° 0 mm 3 mps 756 mmHg 88%
04:00 +26°C° 0 mm 3 mps 756 mmHg 88%
05:00 +26°C° 0 mm 3 mps 757 mmHg 89%
06:00 +25°C° 0 mm 3 mps 757 mmHg 90%
07:00 +27°C° 0 mm 3 mps 757 mmHg 80%
08:00 +29°C° 0 mm 3 mps 758 mmHg 71%
09:00 +31°C° 0 mm 3 mps 758 mmHg 62%
10:00 +34°C° 0 mm 4 mps 758 mmHg 54%
11:00 +36°C° 0 mm 4 mps 758 mmHg 47%
12:00 +37°C° 0 mm 4 mps 758 mmHg 39%
13:00 +37°C° 0 mm 4 mps 757 mmHg 37%
14:00 +39°C° 0 mm 5 mps 756 mmHg 35%
15:00 +39°C° 0 mm 5 mps 755 mmHg 32%
16:00 +36°C° 0 mm 5 mps 755 mmHg 39%
17:00 +34°C° 0 mm 5 mps 756 mmHg 46%
18:00 +33°C° 0 mm 5 mps 756 mmHg 53%
19:00 +32°C° 0 mm 5 mps 756 mmHg 61%
20:00 +29°C° 0 mm 5 mps 757 mmHg 69%
21:00 +28°C° 0 mm 5 mps 758 mmHg 78%
22:00 +28°C° 0 mm 4 mps 758 mmHg 79%
23:00 +28°C° 0 mm 4 mps 758 mmHg 81%

Day after tomorrow, 30 September, Wednesday

Time Temperature Precipitation Wind Pressure Humidity
00:00 +27°C° 0 mm 3 mps 758 mmHg 83%
01:00 +27°C° 0 mm 3 mps 757 mmHg 85%
02:00 +26°C° 0 mm 3 mps 757 mmHg 87%
03:00 +26°C° 0 mm 3 mps 756 mmHg 89%
04:00 +26°C° 0 mm 3 mps 756 mmHg 90%
05:00 +26°C° 0 mm 3 mps 756 mmHg 91%
06:00 +26°C° 0 mm 3 mps 756 mmHg 91%
07:00 +28°C° 0 mm 3 mps 757 mmHg 82%
08:00 +30°C° 0 mm 3 mps 758 mmHg 73%
09:00 +33°C° 0 mm 3 mps 758 mmHg 64%
10:00 +34°C° 0 mm 4 mps 758 mmHg 58%
11:00 +36°C° 0 mm 4 mps 758 mmHg 52%
12:00 +37°C° 0 mm 4 mps 757 mmHg 46%
13:00 +37°C° 0 mm 4 mps 756 mmHg 46%
14:00 +37°C° 0 mm 5 mps 756 mmHg 45%
15:00 +39°C° 0 mm 5 mps 755 mmHg 45%
16:00 +36°C° 0 mm 5 mps 755 mmHg 51%
17:00 +34°C° 0 mm 5 mps 755 mmHg 56%
18:00 +33°C° 0 mm 5 mps 755 mmHg 62%
19:00 +32°C° 0 mm 5 mps 756 mmHg 67%
20:00 +30°C° 0 mm 4 mps 756 mmHg 72%
21:00 +29°C° 0 mm 4 mps 757 mmHg 77%
22:00 +28°C° 0 mm 4 mps 757 mmHg 78%
23:00 +28°C° 0 mm 4 mps 757 mmHg 79%

1 October, Thursday

Time Temperature Precipitation Wind Pressure Humidity
00:00 +28°C° 0 mm 4 mps 757 mmHg 79%
01:00 +28°C° 0 mm 4 mps 756 mmHg 80%
02:00 +28°C° 0 mm 4 mps 756 mmHg 80%
03:00 +27°C° 0 mm 4 mps 755 mmHg 81%
04:00 +27°C° 0 mm 4 mps 755 mmHg 83%
05:00 +27°C° 0 mm 3 mps 755 mmHg 85%
06:00 +26°C° 0 mm 3 mps 755 mmHg 87%
07:00 +28°C° 0 mm 3 mps 756 mmHg 78%
08:00 +30°C° 0 mm 4 mps 757 mmHg 70%
09:00 +33°C° 0 mm 4 mps 757 mmHg 61%
10:00 +34°C° 0 mm 4 mps 757 mmHg 55%
11:00 +36°C° 0 mm 4 mps 757 mmHg 50%
12:00 +37°C° 0 mm 5 mps 757 mmHg 44%
13:00 +37°C° 0.1 mm 5 mps 756 mmHg 44%
14:00 +37°C° 0.1 mm 5 mps 755 mmHg 43%
15:00 +37°C° 0.1 mm 5 mps 755 mmHg 43%
16:00 +36°C° 0 mm 5 mps 755 mmHg 47%
17:00 +34°C° 0 mm 5 mps 755 mmHg 52%
18:00 +33°C° 0 mm 5 mps 755 mmHg 56%
19:00 +32°C° 0 mm 5 mps 755 mmHg 62%
20:00 +30°C° 0 mm 5 mps 756 mmHg 67%
21:00 +29°C° 0 mm 5 mps 757 mmHg 72%
22:00 +28°C° 0 mm 4 mps 757 mmHg 74%
23:00 +28°C° 0 mm 4 mps 757 mmHg 77%

2 October, Friday

Time Temperature Precipitation Wind Pressure Humidity
00:00 +27°C° 0 mm 4 mps 757 mmHg 79%
01:00 +27°C° 0 mm 3 mps 756 mmHg 81%
02:00 +27°C° 0 mm 3 mps 756 mmHg 83%
03:00 +26°C° 0 mm 3 mps 756 mmHg 85%
04:00 +26°C° 0 mm 3 mps 756 mmHg 87%
05:00 +26°C° 0 mm 3 mps 756 mmHg 89%
06:00 +25°C° 0 mm 2 mps 756 mmHg 91%
07:00 +27°C° 0 mm 3 mps 756 mmHg 81%
08:00 +29°C° 0 mm 3 mps 757 mmHg 72%
09:00 +33°C° 0 mm 3 mps 758 mmHg 62%
10:00 +34°C° 0 mm 3 mps 757 mmHg 55%
11:00 +36°C° 0 mm 4 mps 757 mmHg 47%
12:00 +37°C° 0 mm 4 mps 757 mmHg 40%
13:00 +37°C° 0 mm 4 mps 756 mmHg 41%
14:00 +37°C° 0 mm 5 mps 755 mmHg 41%
15:00 +37°C° 0 mm 5 mps 755 mmHg 42%
16:00 +36°C° 0 mm 5 mps 755 mmHg 48%
17:00 +34°C° 0 mm 5 mps 755 mmHg 54%
18:00 +33°C° 0 mm 5 mps 755 mmHg 59%
19:00 +32°C° 0 mm 5 mps 756 mmHg 64%
20:00 +30°C° 0 mm 5 mps 756 mmHg 69%
21:00 +29°C° 0 mm 5 mps 757 mmHg 73%
22:00 +28°C° 0 mm 4 mps 757 mmHg 76%
23:00 +28°C° 0 mm 4 mps 757 mmHg 78%

3 October, Saturday

Time Temperature Precipitation Wind Pressure Humidity
00:00 +27°C° 0 mm 3 mps 757 mmHg 81%
01:00 +27°C° 0 mm 3 mps 757 mmHg 83%
02:00 +27°C° 0 mm 3 mps 756 mmHg 85%
03:00 +26°C° 0 mm 3 mps 756 mmHg 87%
04:00 +26°C° 0 mm 3 mps 756 mmHg 89%
05:00 +26°C° 0 mm 3 mps 756 mmHg 91%
06:00 +25°C° 0 mm 3 mps 756 mmHg 93%
07:00 +27°C° 0 mm 3 mps 757 mmHg 84%
08:00 +29°C° 0 mm 3 mps 757 mmHg 76%
09:00 +33°C° 0 mm 3 mps 758 mmHg 67%
10:00 +34°C° 0 mm 4 mps 758 mmHg 60%
11:00 +36°C° 0 mm 4 mps 758 mmHg 53%
12:00 +39°C° 0 mm 5 mps 757 mmHg 46%
13:00 +39°C° 0 mm 5 mps 757 mmHg 45%
14:00 +39°C° 0 mm 5 mps 756 mmHg 45%
15:00 +39°C° 0 mm 6 mps 755 mmHg 45%
16:00 +36°C° 0 mm 5 mps 755 mmHg 50%
17:00 +34°C° 0 mm 5 mps 755 mmHg 56%
18:00 +33°C° 0 mm 5 mps 756 mmHg 61%
19:00 +32°C° 0 mm 5 mps 756 mmHg 66%
20:00 +30°C° 0 mm 5 mps 757 mmHg 71%
21:00 +29°C° 0 mm 4 mps 757 mmHg 76%
22:00 +28°C° 0 mm 4 mps 757 mmHg 78%
23:00 +28°C° 0 mm 4 mps 757 mmHg 80%
Show more